[[{"header":{"parameterUnit":"m.s-1","parameterCategory":1,"la1":30.2991,"la2":30.254,"lo1":-89.0895,"lo2":-89.0444,"dy":0.0017,"dx":0.0017,"nx":28,"ny":28,"refTime":"2023-10-21T09:00:00:Z","depth":0,"parameterNumber":2,"parameterNumberName":"U-component_of_WINDS"},"data":[0,0,0,0,0,0,0,0,0,0,0,0,0,0,0,0,0,0,0,0,0,0,0,0,0,0,0,0,0,0,0,0,0,0,0,0,0,0,0,0,0,0,0,0,0,0,0,0,0,0,0,0,0,0,0,0,0,0,-0.1831,-0.1831,0,-0.1816,-0.1816,-0.1815,-0.1817,-0.1817,-0.1818,-0.1818,-0.1802,-0.1801,-0.18,0,0,0,0,0,0,0,0,0,0,0,0,0,-0.1861,-0.186,-0.1831,-0.1831,-0.1831,-0.1816,-0.1816,-0.1815,-0.1817,-0.1817,-0.1818,-0.1818,-0.1802,-0.1801,-0.18,0,0,0,0,0,0,0,0,0,0,0,0,0,-0.1847,-0.186,-0.1831,-0.183,-0.183,-0.1816,-0.1816,-0.1815,-0.1817,-0.1817,-0.1818,-0.1818,-0.1802,-0.1801,-0.18,-0.1786,0,0,-0.1797,-0.1797,0,0,0,0,0,0,0,0,-0.1848,-0.1846,-0.183,-0.183,-0.183,-0.1819,-0.182,-0.1806,-0.1817,-0.1822,-0.1818,-0.1818,-0.1807,-0.1806,-0.1802,-0.1786,-0.1785,-0.1797,-0.1796,-0.1796,-0.1796,0,0,0,0,0,0,0,-0.1849,-0.1847,-0.1825,-0.183,-0.183,-0.183,-0.1828,-0.1817,-0.1812,-0.1821,-0.1822,-0.182,-0.1807,-0.1803,-0.1801,-0.1785,-0.1797,-0.1796,-0.1795,-0.1795,-0.1754,-0.1754,0,0,0,0,0,0,-0.185,-0.1847,-0.1826,-0.1825,-0.184,-0.1829,-0.1827,-0.1822,-0.1813,-0.1812,-0.1819,-0.182,-0.1804,-0.1803,-0.1801,-0.1783,-0.1796,-0.1795,-0.1794,-0.1755,-0.1754,-0.1754,0,0,0,0,0,0,-0.1851,-0.1848,-0.1826,-0.1836,-0.1833,-0.1828,-0.1822,-0.1821,-0.1817,-0.1811,-0.181,-0.1816,-0.1805,-0.1802,-0.179,-0.1782,-0.1795,-0.1794,-0.1755,-0.1755,-0.1754,-0.1748,0,0,0,0,0,0,-0.1852,-0.1848,-0.1844,-0.1836,-0.1833,-0.1816,-0.1822,-0.1821,-0.1816,-0.1816,-0.1808,-0.1807,-0.1805,-0.1791,-0.1789,-0.1781,-0.1793,-0.1756,-0.1755,-0.1754,-0.1748,-0.1747,-0.1745,0,0,0,0,0,-0.1853,-0.1843,-0.1843,-0.1841,-0.1827,-0.1815,-0.1813,-0.1811,-0.1815,-0.181,-0.1805,-0.1807,-0.1784,-0.179,-0.1787,-0.1779,-0.1756,-0.1755,-0.1754,-0.1749,-0.1747,-0.1745,0,0,0,0,0,0,-0.185,-0.1842,-0.1842,-0.183,-0.1823,-0.1816,-0.1809,-0.1809,-0.1802,-0.1802,-0.18,-0.1798,-0.1785,-0.1781,-0.1788,-0.1764,-0.177,-0.1769,-0.1767,-0.1765,-0.1764,-0.1765,-0.1792,0,0,0,0,0,-0.1848,-0.184,-0.1833,-0.1822,-0.1819,-0.1815,-0.181,-0.1808,-0.1801,-0.1799,-0.1793,-0.1786,-0.1777,-0.1771,-0.1763,-0.1748,-0.1745,-0.1741,-0.1739,-0.1738,-0.1736,-0.1727,-0.1724,-0.175,-0.175,-0.175,0,0,-0.1844,-0.1838,-0.1833,-0.1822,-0.1817,-0.1807,-0.1812,-0.1803,-0.1796,-0.1797,-0.1784,-0.178,-0.1772,-0.1758,-0.1751,-0.1754,-0.1729,-0.1737,-0.1736,-0.1735,-0.1725,-0.1723,-0.172,-0.1749,-0.175,-0.175,0,0,-0.1831,-0.1827,-0.1817,-0.1811,-0.1803,-0.18,-0.1797,-0.1789,-0.1786,-0.1773,-0.1774,-0.1765,-0.175,-0.1743,-0.1738,-0.1721,-0.1721,-0.1718,-0.171,-0.17,-0.1698,-0.1696,-0.1689,-0.1686,-0.1717,-0.1717,-0.1717,0,-0.1827,-0.1814,-0.1811,-0.1801,-0.1796,-0.1796,-0.1785,-0.178,-0.1769,-0.1765,-0.1768,-0.1748,-0.1742,-0.1726,-0.1721,-0.1718,-0.1714,-0.1719,-0.1699,-0.1697,-0.1695,-0.1688,-0.1685,-0.1716,-0.1716,-0.1716,-0.1716,0,-0.1808,-0.1798,-0.1791,-0.178,-0.1774,-0.1764,-0.1759,-0.1753,-0.1751,-0.1748,-0.1733,-0.1727,-0.1716,-0.1712,-0.1712,-0.1695,-0.1696,-0.1699,-0.1705,-0.1692,-0.1685,-0.1682,-0.1716,-0.1716,-0.1716,-0.1716,0,0,-0.1794,-0.1781,-0.1778,-0.1773,-0.1763,-0.1755,-0.1744,-0.1733,-0.1727,-0.1719,-0.1709,-0.1695,-0.1697,-0.1691,-0.169,-0.1681,-0.1666,-0.1685,-0.1684,-0.168,-0.1645,-0.1642,-0.1639,-0.1667,-0.1666,-0.1666,-0.1645,0,-0.1779,-0.176,-0.1757,-0.174,-0.173,-0.173,-0.172,-0.1712,-0.1708,-0.1698,-0.1694,-0.1683,-0.1688,-0.1684,-0.1675,-0.167,-0.1659,-0.1671,-0.1656,-0.1655,-0.1657,-0.1636,-0.1633,-0.1615,-0.1643,-0.1642,-0.1642,0,-0.176,-0.1751,-0.1733,-0.1723,-0.1718,-0.171,-0.1698,-0.169,-0.1681,-0.1678,-0.167,-0.1669,-0.1656,-0.1663,-0.1645,-0.1653,-0.1647,-0.1643,-0.1642,-0.164,-0.1647,-0.1632,-0.1609,-0.1605,-0.1638,-0.1638,-0.1639,0,-0.175,-0.1734,-0.172,-0.1715,-0.1703,-0.1697,-0.1692,-0.1683,-0.1676,-0.1666,-0.1661,-0.165,-0.1644,-0.1635,-0.163,-0.1635,-0.1611,-0.1618,-0.1607,-0.1607,-0.1602,-0.1602,-0.1576,-0.1599,-0.16,-0.16,-0.16,0,-0.1734,-0.1722,-0.1715,-0.1707,-0.1693,-0.1689,-0.1676,-0.167,-0.1662,-0.1652,-0.1651,-0.1641,-0.1636,-0.1625,-0.1621,-0.1606,-0.1603,-0.16,-0.1599,-0.1599,-0.1599,-0.1594,-0.1595,-0.1599,-0.1599,-0.1599,-0.1599,0,-0.172,-0.1715,-0.17,-0.169,-0.1687,-0.1677,-0.1668,-0.1659,-0.1654,-0.1641,-0.1637,-0.163,-0.1617,-0.1611,-0.1595,-0.1593,-0.1574,-0.1575,-0.1577,-0.1577,-0.1566,-0.1566,-0.1535,-0.153,-0.1558,-0.1557,-0.1557,0,-0.171,-0.1701,-0.1689,-0.1682,-0.1676,-0.1665,-0.1658,-0.1653,-0.1645,-0.1633,-0.1625,-0.1612,-0.1601,-0.158,-0.1573,-0.156,-0.1559,-0.1549,-0.1557,-0.1557,-0.1557,-0.1557,-0.1556,-0.1547,-0.1547,-0.1547,-0.1547,0,-0.1692,-0.1689,-0.1679,-0.1666,-0.1657,-0.1648,-0.1638,-0.1633,-0.1626,-0.1617,-0.1604,-0.1595,-0.1578,-0.1564,-0.1551,-0.1545,-0.1544,-0.1544,-0.1541,-0.1541,-0.1542,-0.1539,-0.1572,-0.1545,-0.1545,-0.1545,-0.1545,-0.1545,-0.1678,-0.167,-0.1659,-0.1647,-0.1639,-0.163,-0.162,-0.1614,-0.1603,-0.1588,-0.1586,-0.1571,-0.156,-0.1542,-0.1535,-0.1522,-0.1525,-0.152,-0.1519,-0.1518,-0.1516,-0.1544,-0.152,-0.152,-0.152,-0.152,-0.152,0,-0.1659,-0.1652,-0.1641,-0.1627,-0.1617,-0.1617,-0.1606,-0.1597,-0.1584,-0.1574,-0.1563,-0.1546,-0.1532,-0.1523,-0.1509,-0.1501,-0.15,-0.1497,-0.1497,-0.1495,-0.1516,-0.1519,-0.1498,-0.1498,-0.1498,-0.1498,-0.1498,-0.1498,-0.1647,-0.1632,-0.1628,-0.1607,-0.16,-0.1586,-0.1579,-0.157,-0.1561,-0.1543,-0.1531,-0.1525,-0.1515,-0.15,-0.1486,-0.1484,-0.1478,-0.1475,-0.1472,-0.1492,-0.1494,-0.1496,-0.1499,-0.1474,-0.1474,-0.1453,-0.1452,-0.1452]},{"header":{"parameterUnit":"m.s-1","parameterCategory":1,"la1":30.2991,"la2":30.254,"lo1":-89.0895,"lo2":-89.0444,"dy":0.0017,"dx":0.0017,"nx":28,"ny":28,"refTime":"2023-10-21T09:00:00:Z","depth":0,"parameterNumber":3,"parameterNumberName":"V-component_of_WINDS"},"data":[0,0,0,0,0,0,0,0,0,0,0,0,0,0,0,0,0,0,0,0,0,0,0,0,0,0,0,0,0,0,0,0,0,0,0,0,0,0,0,0,0,0,0,0,0,0,0,0,0,0,0,0,0,0,0,0,0,0,-4.1662,-4.1664,0,-4.1794,-4.1795,-4.1797,-4.1777,-4.1775,-4.1773,-4.1771,-4.19,-4.1905,-4.1911,0,0,0,0,0,0,0,0,0,0,0,0,0,-4.1391,-4.1396,-4.1662,-4.1664,-4.1666,-4.1793,-4.1795,-4.1797,-4.1778,-4.1775,-4.1772,-4.177,-4.1898,-4.1905,-4.1911,0,0,0,0,0,0,0,0,0,0,0,0,0,-4.1514,-4.1398,-4.1662,-4.1671,-4.1674,-4.1793,-4.1795,-4.1797,-4.1778,-4.1775,-4.1771,-4.1768,-4.1896,-4.1904,-4.1912,-4.2029,0,0,-4.1937,-4.1941,0,0,0,0,0,0,0,0,-4.1507,-4.1524,-4.1668,-4.1671,-4.1674,-4.1766,-4.1747,-4.1875,-4.1779,-4.1738,-4.1771,-4.1767,-4.1858,-4.1869,-4.1901,-4.2035,-4.2041,-4.1938,-4.1943,-4.1947,-4.1949,0,0,0,0,0,0,0,-4.1499,-4.1518,-4.1714,-4.167,-4.1674,-4.1668,-4.1682,-4.1771,-4.1815,-4.1742,-4.174,-4.1757,-4.1858,-4.1893,-4.1903,-4.2043,-4.1938,-4.1945,-4.195,-4.1954,-4.2281,-4.2285,0,0,0,0,0,0,-4.1488,-4.1511,-4.171,-4.1718,-4.1581,-4.1676,-4.1691,-4.1739,-4.1814,-4.1822,-4.1759,-4.1755,-4.188,-4.1894,-4.1908,-4.2051,-4.1947,-4.1954,-4.1959,-4.2277,-4.2282,-4.2286,0,0,0,0,0,0,-4.1483,-4.1506,-4.1705,-4.1615,-4.1639,-4.1684,-4.1738,-4.1744,-4.1778,-4.1827,-4.1834,-4.1787,-4.1878,-4.1896,-4.2,-4.2055,-4.1958,-4.1966,-4.2273,-4.2279,-4.2284,-4.2336,0,0,0,0,0,0,-4.1475,-4.1504,-4.155,-4.1616,-4.1644,-4.1796,-4.1742,-4.1749,-4.1793,-4.1789,-4.1855,-4.1862,-4.1877,-4.1988,-4.2008,-4.2064,-4.1972,-4.2268,-4.2275,-4.2282,-4.233,-4.2343,-4.2354,0,0,0,0,0,-4.1465,-4.1558,-4.1552,-4.1576,-4.1702,-4.1799,-4.1815,-4.1831,-4.1797,-4.1843,-4.1875,-4.186,-4.2046,-4.1998,-4.2021,-4.2081,-4.2265,-4.2273,-4.2282,-4.2324,-4.234,-4.2354,0,0,0,0,0,0,-4.1495,-4.1567,-4.1561,-4.1678,-4.1733,-4.1795,-4.1853,-4.1848,-4.1911,-4.1905,-4.1921,-4.1936,-4.2041,-4.2071,-4.2017,-4.2199,-4.215,-4.2164,-4.2175,-4.2191,-4.2203,-4.2193,-4.1979,0,0,0,0,0,-4.1515,-4.1589,-4.1647,-4.1744,-4.1773,-4.1809,-4.1851,-4.1859,-4.1916,-4.1938,-4.1977,-4.2032,-4.2102,-4.2148,-4.2216,-4.2334,-4.2348,-4.2387,-4.2399,-4.2409,-4.242,-4.2486,-4.2504,-4.2314,-4.2314,-4.2313,0,0,-4.1557,-4.1606,-4.1651,-4.1752,-4.1795,-4.187,-4.1828,-4.1908,-4.1964,-4.195,-4.2051,-4.2082,-4.2143,-4.2255,-4.2306,-4.2283,-4.2476,-4.2419,-4.2427,-4.2433,-4.2496,-4.2514,-4.253,-4.2319,-4.2318,-4.2317,0,0,-4.1673,-4.1717,-4.1804,-4.1849,-4.1916,-4.194,-4.1961,-4.2025,-4.2046,-4.2148,-4.2139,-4.2205,-4.2326,-4.237,-4.2409,-4.2544,-4.2533,-4.2565,-4.2629,-4.2693,-4.2708,-4.2721,-4.277,-4.2787,-4.2576,-4.2577,-4.2577,0,-4.1716,-4.183,-4.1848,-4.1931,-4.1976,-4.1969,-4.2057,-4.2099,-4.2184,-4.2215,-4.2188,-4.2342,-4.2382,-4.2505,-4.2539,-4.257,-4.2594,-4.2557,-4.2705,-4.2718,-4.2731,-4.2777,-4.2795,-4.258,-4.258,-4.2579,-4.2579,0,-4.1881,-4.196,-4.2022,-4.2107,-4.2158,-4.2243,-4.2273,-4.2323,-4.2328,-4.2354,-4.2458,-4.2508,-4.2586,-4.2616,-4.2619,-4.274,-4.2724,-4.2701,-4.2653,-4.2752,-4.2796,-4.2814,-4.2585,-4.2584,-4.2583,-4.2582,0,0,-4.2016,-4.2113,-4.2135,-4.2174,-4.2249,-4.231,-4.2394,-4.2473,-4.2515,-4.2575,-4.2646,-4.275,-4.273,-4.2774,-4.2783,-4.2839,-4.2944,-4.281,-4.2812,-4.2833,-4.308,-4.3097,-4.3117,-4.2938,-4.2941,-4.2944,-4.3075,0,-4.2139,-4.229,-4.231,-4.2444,-4.2517,-4.2513,-4.2587,-4.264,-4.2668,-4.2733,-4.2762,-4.2836,-4.2804,-4.2831,-4.2887,-4.2919,-4.2994,-4.291,-4.3003,-4.3006,-4.2988,-4.314,-4.3157,-4.3278,-4.3092,-4.3095,-4.3097,0,-4.2302,-4.2368,-4.251,-4.2577,-4.2608,-4.2674,-4.2749,-4.2812,-4.2872,-4.2888,-4.2939,-4.2941,-4.3028,-4.2977,-4.3097,-4.304,-4.3079,-4.3101,-4.3106,-4.3115,-4.3057,-4.3152,-4.3317,-4.3335,-4.3124,-4.3122,-4.312,0,-4.2387,-4.2512,-4.2613,-4.2647,-4.2727,-4.2773,-4.2808,-4.2866,-4.2913,-4.2977,-4.3008,-4.3081,-4.3121,-4.3177,-4.3199,-4.316,-4.3318,-4.3269,-4.3333,-4.3333,-4.3366,-4.3363,-4.3539,-4.3392,-4.3391,-4.3391,-4.3391,0,-4.2521,-4.2608,-4.2653,-4.2715,-4.2812,-4.2835,-4.293,-4.2963,-4.3015,-4.3083,-4.3083,-4.3146,-4.3172,-4.324,-4.3258,-4.3354,-4.3372,-4.3387,-4.3391,-4.3387,-4.3385,-4.3412,-4.3404,-4.3396,-4.3395,-4.3394,-4.3393,0,-4.2632,-4.2666,-4.2776,-4.2844,-4.2863,-4.2932,-4.2989,-4.3049,-4.3077,-4.3163,-4.3184,-4.3227,-4.3307,-4.3335,-4.3431,-4.3443,-4.3556,-4.3552,-4.3536,-4.3537,-4.36,-4.3593,-4.3799,-4.3827,-4.3661,-4.3663,-4.3664,0,-4.2715,-4.2783,-4.2859,-4.2906,-4.2943,-4.3018,-4.3067,-4.3091,-4.3141,-4.3217,-4.3268,-4.3348,-4.3413,-4.354,-4.3579,-4.3653,-4.3651,-4.3718,-4.3662,-4.3657,-4.3652,-4.3648,-4.3655,-4.3728,-4.373,-4.3731,-4.3733,0,-4.286,-4.2874,-4.2945,-4.3023,-4.3081,-4.3142,-4.3202,-4.324,-4.3273,-4.3329,-4.3413,-4.3463,-4.3563,-4.3642,-4.3719,-4.3753,-4.3749,-4.375,-4.3769,-4.3766,-4.3754,-4.3762,-4.3564,-4.3745,-4.3744,-4.3743,-4.3742,-4.3742,-4.296,-4.302,-4.3084,-4.3163,-4.3211,-4.3267,-4.3328,-4.3364,-4.3435,-4.3519,-4.3529,-4.3619,-4.3679,-4.3781,-4.382,-4.3889,-4.387,-4.3897,-4.3904,-4.3911,-4.3916,-4.3744,-4.3903,-4.3902,-4.3902,-4.3902,-4.3902,0,-4.3105,-4.3146,-4.3219,-4.3304,-4.3367,-4.3359,-4.3425,-4.3478,-4.3557,-4.3614,-4.368,-4.3775,-4.3853,-4.3899,-4.3977,-4.4024,-4.4023,-4.4043,-4.404,-4.4048,-4.3928,-4.3904,-4.4042,-4.4042,-4.4042,-4.4042,-4.4042,-4.4042,-4.3187,-4.3289,-4.3311,-4.3437,-4.3478,-4.3567,-4.3605,-4.3657,-4.3703,-4.3811,-4.3877,-4.3907,-4.396,-4.4042,-4.4113,-4.4124,-4.4153,-4.4174,-4.4184,-4.4071,-4.4056,-4.4042,-4.402,-4.418,-4.4181,-4.4299,-4.43,-4.43]}]]